Location: Richmond
(37.5540°N, 77.4610°W)
Time: 04:55:25
(UTC-05:00)

ISS - Visible Passes

Search period start: 16 November 2018 00:00
Search period end: 26 November 2018 00:00
Orbit: 401 x 408 km, 51.6° (Epoch: 16 November)

Date Brightness Start Highest point End Pass type
(mag) Time Alt. Az. Time Alt. Az. Time Alt. Az.
16 Nov -0.4 04:16:50 12° ESE 04:16:50 12° ESE 04:17:07 10° ESE visible
16 Nov -1.9 05:49:33 14° WSW 05:50:09 15° SW 05:52:06 10° SSW visible
17 Nov -1.5 05:00:07 17° S 05:00:07 17° S 05:01:06 10° SSE visible
20 Nov -0.9 18:57:38 10° S 18:57:39 10° S 18:57:39 10° S visible
21 Nov -1.6 18:06:49 10° SSE 18:08:08 13° SE 18:08:08 13° SE visible
22 Nov -2.5 18:49:09 10° SW 18:51:13 36° SW 18:51:13 36° SW visible
23 Nov -2.9 17:57:18 10° SSW 18:00:16 33° SE 18:01:31 24° E visible
23 Nov -0.3 19:34:03 10° W 19:34:12 11° W 19:34:12 11° W visible
24 Nov -2.9 18:41:21 10° WSW 18:44:23 42° NW 18:44:23 42° NW visible
25 Nov -3.9 17:48:58 10° SW 17:52:13 85° NW 17:54:29 18° NE visible
